Regional Weather Roundup
Issued by NWS

Home | Current Version | Previous Version | Graphics & Text | Print | Product List | Glossary On
Versions: 1 2 3 4 5 6 7 8 9 10 11 12 13 14 15 16 17 18 19 20 21 22 23 24 25 26 27
000
ASUS45 KTFX 051710
RWRMT
MONTANA REGIONAL WEATHER ROUNDUP
NATIONAL WEATHER SERVICE GREAT FALLS MT
1100 AM MDT THU MAY 05 2016

NOTE: "FAIR" INDICATES FEW OR NO CLOUDS BELOW 12000 FEET WITH NO
SIGNIFICANT WEATHER AND/OR OBSTRUCTIONS TO VISIBILITY.

MTZ001>007-043-051800-
WEST OF THE DIVIDE

CITY           SKY/WX    TMP DP  RH WIND       PRES   REMARKS
KALISPELL      PTSUNNY   68  46  45 N5        29.91F
MISSOULA       MOSUNNY   64  43  46 CALM      29.94F
BUTTE          CLOUDY    64  31  28 CALM      30.01F
MULLAN PASS    MOSUNNY   52  40  63 CALM      30.01S
ANACONDA         N/A     63  37  39 N7        30.00F
DEER LODGE       N/A     63  37  39 CALM      30.00F
EUREKA           N/A     64  46  52 NW6       29.94S
HAMILTON         N/A     64  39  39 CALM      29.93F
LIBBY            N/A     63  48  59 N7        29.93F
$$

MTZ008-052>055-051800-
SOUTHWEST MONTANA

CITY           SKY/WX    TMP DP  RH WIND       PRES   REMARKS
BOZEMAN        CLOUDY    71  42  35 N3        29.97F
DILLON         CLOUDY    61  35  37 SW5       29.99F
ENNIS          SUNNY     68  36  30 S8        30.05F
THREE FORKS      N/A     70  11  10 CALM      29.96F
TWIN BRIDGES     N/A     65  31  28 SE2       29.98F
$$

MTZ009-010-012-014-046-048-049-054-051800-
EAST SLOPES AND CENTRAL MONTANA

CITY           SKY/WX    TMP DP  RH WIND       PRES   REMARKS
CUT BANK       MOSUNNY   71  39  31 N7        29.92S
GREAT FALLS    SUNNY     70  41  34 W6        29.91S
MALMSTROM AFB  PTSUNNY   68  40  36 W9        29.91S
HELENA         CLOUDY    67  37  33 E3        29.95S
CHOTEAU          N/A     72  37  28 E8        29.92S
$$

MTZ011-013-016-021-045-047-050-051-051800-
NORTH CENTRAL MONTANA

CITY           SKY/WX    TMP DP  RH WIND       PRES   REMARKS
HAVRE          SUNNY     70  45  40 W7        29.86F
LEWISTOWN      MOSUNNY   76  35  22 W8        29.92S
N BAR RANCH      N/A     75  37  25 NE7       29.94F
$$

MTZ017>020-022>027-061-062-051800-
NORTHEAST MONTANA

CITY           SKY/WX    TMP DP  RH WIND       PRES   REMARKS
GLASGOW        CLOUDY    71  47  42 SW6       29.82R
JORDAN           N/A     77  48  35 W6        29.84F
SIDNEY         SUNNY     77  50  38 S9        29.84F
WOLF POINT     SUNNY     82  48  30 SW8       29.80F
POPLAR           N/A     81  46  30 CALM      29.81F
$$

MTZ028>42-056>058-051800-
SOUTHCENTRAL AND SOUTHEAST MONTANA

CITY           SKY/WX    TMP DP  RH WIND       PRES   REMARKS
BAKER          SUNNY     81  41  24 SE8       29.90F
BILLINGS       CLOUDY    70  38  31 SW13      29.93S
LIVINGSTON     CLOUDY    72  40  31 VRB3      29.96F
MILES CITY     SUNNY     75  47  36 SE8       29.86F
FORSYTH          N/A     75  43  31 SW3       29.87S
LAUREL           N/A     67  43  41 S6        29.93S
ROUNDUP          N/A     71  39  31 S12       29.83F
$$

REGIONAL REPORTS...DAKOTAS

CITY           SKY/WX    TMP DP  RH WIND       PRES   REMARKS
WILLISTON      SUNNY     80  47  31 S7        29.83F
MINOT          SUNNY     86  43  22 SW15      29.82F
DICKINSON      SUNNY     79  44  28 SW8       29.87F
BEACH            N/A     82  32  16 S5        29.91S
CROSBY           N/A     84  43  23 S10       29.82F
TIOGA            N/A     81  41  24 S8        29.88F
WATFORD CITY     N/A     82  45  26 S6        29.84F
BISMARCK       SUNNY     81  45  28 S13       29.89F
GRAND FORKS    MOSUNNY   88  43  20 W23       29.80F
FARGO          SUNNY     79  45  29 S12       29.88F
BUFFALO SD       N/A     79  47  32 S6        29.86F
RAPID CITY     SUNNY     75  51  43 SE7       29.94F
$$

REGIONAL REPORTS...WYOMING/IDAHO/WASHINGTON

CITY           SKY/WX    TMP DP  RH WIND       PRES   REMARKS
GILLETTE       CLOUDY    73  44  35 S15       29.97S
SHERIDAN       CLOUDY    73  45  36 S3        29.95S
BUFFALO WY     CLOUDY    72  42  34 SE7       30.01R
CODY           CLOUDY    72  34  25 SW9       30.02S
YELLOWSTONE LA   N/A     45  26  47 CALM      30.21R
IDAHO FALLS    CLOUDY    67  43  41 NW7       29.98S
SALMON         CLOUDY    61  36  39 CALM      29.94F
BOISE          CLOUDY    61  45  55 W5        29.87S
SPOKANE        PTSUNNY   58  50  75 VRB3      29.94F
$$

REGIONAL REPORTS...ALBERTA

CITY           SKY/WX    TMP DP  RH WIND       PRES   REMARKS
EDMONTON       PTSUNNY   54  32  43 NW8       30.02R
CALGARY        LGT RAIN  46  39  76 N15       30.04R
LETHBRIDGE     MOSUNNY   63  37  39 NW12G20   29.94R
MEDICINE HAT   MOSUNNY   66  43  42 NW8       29.87S
WATERTON GATE    N/A     59  39  47 NE8         N/A
CARDSTON         N/A     59  39  47 N9G17       N/A
MILK RIVER       N/A     64  43  45 N10         N/A
ONEFOUR          N/A     72  45  37 W12         N/A
$$

REGIONAL REPORTS...SASKATCHEWAN

CITY           SKY/WX    TMP DP  RH WIND       PRES   REMARKS
SWIFT CURRENT  SUNNY     79  39  24 W22G28    29.79S
REGINA         PTSUNNY   86  37  17 S10       29.74F
SASKATOON      PTSUNNY   79  41  25 E7        29.71F
CYPRESS HILLS    N/A     70  34  26 NW8         N/A
VAL MARIE        N/A     77  41  27 N7          N/A
ROCKGLEN         N/A     73  43  33 SW5         N/A
$$




USA.gov is the U.S. government's official web portal to all federal, state and local government web resources and services.